Time,TemperatureF,DewpointF,PressureIn,WindDirection,WindDirectionDegrees,WindSpeedMPH,WindSpeedGustMPH,Humidity,HourlyPrecipIn,Conditions,Clouds,dailyrainin,SoftwareType,DateUTC
2013-08-24 00:00:00,57.6,53.4,30.29,NE,45,0.0,0.0,86,0.00,CLR,SKC,0.00,WeatherDisplay:10.37,2013-08-24 04:00:00,
2013-08-24 00:01:00,57.6,53.4,30.29,NE,45,0.0,0.0,86,0.00,CLR,SKC,0.00,WeatherDisplay:10.37,2013-08-24 04:01:00,
2013-08-24 00:06:00,57.7,53.6,30.30,NE,45,0.0,0.0,86,0.00,CLR,SKC,0.00,WeatherDisplay:10.37,2013-08-24 04:06:00,
2013-08-24 00:11:00,57.6,53.4,30.29,NE,45,0.0,0.0,86,0.00,CLR,SKC,0.00,WeatherDisplay:10.37,2013-08-24 04:11:00,
2013-08-24 00:16:00,57.4,53.2,30.30,NE,45,0.0,0.0,86,0.00,CLR,SKC,0.00,WeatherDisplay:10.37,2013-08-24 04:16:00,
2013-08-24 00:21:00,57.2,53.0,30.30,NE,45,0.0,0.0,86,0.00,CLR,SKC,0.00,WeatherDisplay:10.37,2013-08-24 04:21:00,
2013-08-24 00:26:00,57.2,53.0,30.30,NE,45,0.0,0.0,86,0.00,CLR,SKC,0.00,WeatherDisplay:10.37,2013-08-24 04:26:00,
2013-08-24 00:31:00,57.0,53.5,30.30,NE,45,0.0,0.0,88,0.00,CLR,SKC,0.00,WeatherDisplay:10.37,2013-08-24 04:31:00,
2013-08-24 00:36:00,56.8,53.3,30.30,NE,45,0.0,0.0,88,0.00,CLR,SKC,0.00,WeatherDisplay:10.37,2013-08-24 04:36:00,
2013-08-24 00:41:00,56.7,53.1,30.30,NE,45,0.0,0.0,88,0.00,CLR,SKC,0.00,WeatherDisplay:10.37,2013-08-24 04:41:00,
2013-08-24 00:46:00,56.7,53.1,30.31,NE,45,0.0,0.0,88,0.00,CLR,SKC,0.00,WeatherDisplay:10.37,2013-08-24 04:46:00,
2013-08-24 00:51:00,56.7,53.1,30.31,NE,45,0.0,0.0,88,0.00,CLR,SKC,0.00,WeatherDisplay:10.37,2013-08-24 04:51:00,
2013-08-24 00:56:00,56.5,53.0,30.31,NE,45,0.0,0.0,88,0.00,CLR,SKC,0.00,WeatherDisplay:10.37,2013-08-24 04:56:00,
2013-08-24 01:01:00,56.5,53.3,30.31,NE,45,0.0,0.0,89,0.00,CLR,SKC,0.00,WeatherDisplay:10.37,2013-08-24 05:01:00,
2013-08-24 01:06:00,56.5,53.3,30.32,NE,45,0.0,0.0,89,0.00,CLR,SKC,0.00,WeatherDisplay:10.37,2013-08-24 05:06:00,
2013-08-24 01:11:00,56.3,53.1,30.31,NE,45,0.0,0.0,89,0.00,CLR,SKC,0.00,WeatherDisplay:10.37,2013-08-24 05:11:00,
2013-08-24 01:16:00,56.1,52.9,30.31,NE,45,0.0,0.0,89,0.00,CLR,SKC,0.00,WeatherDisplay:10.37,2013-08-24 05:16:00,
2013-08-24 01:21:00,55.9,52.7,30.32,NE,45,0.0,0.0,89,0.00,CLR,SKC,0.00,WeatherDisplay:10.37,2013-08-24 05:21:00,
2013-08-24 01:26:00,55.9,52.7,30.32,NE,45,0.0,0.0,89,0.00,CLR,SKC,0.00,WeatherDisplay:10.37,2013-08-24 05:26:00,
2013-08-24 01:31:00,55.9,52.7,30.32,NE,45,0.0,0.0,89,0.00,CLR,SKC,0.00,WeatherDisplay:10.37,2013-08-24 05:31:00,
2013-08-24 01:36:00,55.8,52.6,30.32,NE,45,0.0,0.0,89,0.00,CLR,SKC,0.00,WeatherDisplay:10.37,2013-08-24 05:36:00,
2013-08-24 01:41:00,55.8,52.6,30.32,NE,45,0.0,0.0,89,0.00,CLR,SKC,0.00,WeatherDisplay:10.37,2013-08-24 05:41:00,
2013-08-24 01:46:00,55.6,52.4,30.32,NE,45,0.0,0.0,89,0.00,CLR,SKC,0.00,WeatherDisplay:10.37,2013-08-24 05:46:00,
2013-08-24 01:51:00,55.4,52.5,30.32,NE,45,0.0,0.0,90,0.00,CLR,SKC,0.00,WeatherDisplay:10.37,2013-08-24 05:51:00,
2013-08-24 01:56:00,55.4,52.5,30.32,NE,45,0.0,0.0,90,0.00,CLR,SKC,0.00,WeatherDisplay:10.37,2013-08-24 05:56:00,
2013-08-24 02:01:00,55.4,52.5,30.32,NE,45,0.0,0.0,90,0.00,CLR,SKC,0.00,WeatherDisplay:10.37,2013-08-24 06:01:00,
2013-08-24 02:06:00,55.2,52.6,30.32,NE,45,0.0,0.0,91,0.00,CLR,SKC,0.00,WeatherDisplay:10.37,2013-08-24 06:06:00,
2013-08-24 02:11:00,55.2,52.6,30.32,NE,45,0.0,0.0,91,0.00,CLR,SKC,0.00,WeatherDisplay:10.37,2013-08-24 06:11:00,
2013-08-24 02:16:00,55.2,52.6,30.32,NE,45,0.0,0.0,91,0.00,CLR,SKC,0.00,WeatherDisplay:10.37,2013-08-24 06:16:00,
2013-08-24 02:21:00,55.0,52.5,30.32,NE,45,0.0,0.0,91,0.00,CLR,SKC,0.00,WeatherDisplay:10.37,2013-08-24 06:21:00,
2013-08-24 02:26:00,54.9,52.3,30.33,NE,45,0.0,0.0,91,0.00,CLR,SKC,0.00,WeatherDisplay:10.37,2013-08-24 06:26:00,
2013-08-24 02:31:00,54.7,52.1,30.32,NE,45,0.0,0.0,91,0.00,CLR,SKC,0.00,WeatherDisplay:10.37,2013-08-24 06:31:00,
2013-08-24 02:36:00,54.7,52.1,30.33,NE,45,0.0,0.0,91,0.00,CLR,SKC,0.00,WeatherDisplay:10.37,2013-08-24 06:36:00,
2013-08-24 02:41:00,54.7,52.1,30.33,NE,45,0.0,0.0,91,0.00,CLR,SKC,0.00,WeatherDisplay:10.37,2013-08-24 06:41:00,
2013-08-24 02:46:00,54.7,52.1,30.33,NE,45,0.0,0.0,91,0.00,CLR,SKC,0.00,WeatherDisplay:10.37,2013-08-24 06:46:00,
2013-08-24 02:51:00,54.5,51.9,30.33,NE,45,0.0,0.0,91,0.00,CLR,SKC,0.00,WeatherDisplay:10.37,2013-08-24 06:51:00,
2013-08-24 02:56:00,54.5,51.9,30.33,NE,45,0.0,0.0,91,0.00,CLR,SKC,0.00,WeatherDisplay:10.37,2013-08-24 06:56:00,
2013-08-24 03:01:00,54.3,52.0,30.33,NE,45,0.0,0.0,92,0.00,CLR,SKC,0.00,WeatherDisplay:10.37,2013-08-24 07:01:00,
2013-08-24 03:06:00,54.3,52.0,30.33,NE,45,0.0,0.0,92,0.00,CLR,SKC,0.00,WeatherDisplay:10.37,2013-08-24 07:06:00,
2013-08-24 03:11:00,54.3,52.0,30.34,NE,45,0.0,0.0,92,0.00,CLR,SKC,0.00,WeatherDisplay:10.37,2013-08-24 07:11:00,
2013-08-24 03:16:00,54.3,52.0,30.34,NE,45,0.0,0.0,92,0.00,CLR,SKC,0.00,WeatherDisplay:10.37,2013-08-24 07:16:00,
2013-08-24 03:21:00,54.1,51.9,30.34,NE,45,0.0,0.0,92,0.00,CLR,SKC,0.00,WeatherDisplay:10.37,2013-08-24 07:21:00,
2013-08-24 03:26:00,54.0,51.7,30.34,NE,45,0.0,0.0,92,0.00,CLR,SKC,0.00,WeatherDisplay:10.37,2013-08-24 07:26:00,
2013-08-24 03:32:00,53.8,51.5,30.34,NE,45,0.0,0.0,92,0.00,CLR,SKC,0.00,WeatherDisplay:10.37,2013-08-24 07:32:00,
2013-08-24 03:37:00,53.8,51.5,30.34,NE,45,0.0,0.0,92,0.00,CLR,SKC,0.00,WeatherDisplay:10.37,2013-08-24 07:37:00,
2013-08-24 03:42:00,53.8,51.8,30.35,NE,45,0.0,0.0,93,0.00,CLR,SKC,0.00,WeatherDisplay:10.37,2013-08-24 07:42:00,
2013-08-24 03:47:00,53.8,51.8,30.35,NE,45,0.0,0.0,93,0.00,CLR,SKC,0.00,WeatherDisplay:10.37,2013-08-24 07:47:00,
2013-08-24 03:52:00,53.8,51.8,30.35,SE,135,0.0,0.0,93,0.00,CLR,SKC,0.00,WeatherDisplay:10.37,2013-08-24 07:52:00,
2013-08-24 03:57:00,53.6,51.6,30.35,East,90,0.0,0.0,93,0.00,CLR,SKC,0.00,WeatherDisplay:10.37,2013-08-24 07:57:00,
2013-08-24 04:02:00,53.6,51.6,30.35,East,90,0.0,0.0,93,0.00,CLR,SKC,0.00,WeatherDisplay:10.37,2013-08-24 08:02:00,
2013-08-24 04:07:00,53.6,51.6,30.35,East,90,0.0,0.0,93,0.00,CLR,SKC,0.00,WeatherDisplay:10.37,2013-08-24 08:07:00,
2013-08-24 04:12:00,53.6,51.6,30.35,NW,315,0.0,0.0,93,0.00,CLR,SKC,0.00,WeatherDisplay:10.37,2013-08-24 08:12:00,
2013-08-24 04:17:00,53.6,51.6,30.36,SE,135,0.0,0.0,93,0.00,CLR,SKC,0.00,WeatherDisplay:10.37,2013-08-24 08:17:00,
2013-08-24 04:22:00,53.4,52.0,30.36,SE,135,0.0,0.0,95,0.00,CLR,SKC,0.00,WeatherDisplay:10.37,2013-08-24 08:22:00,
2013-08-24 04:27:00,53.4,52.0,30.36,SE,135,0.0,0.0,95,0.00,CLR,SKC,0.00,WeatherDisplay:10.37,2013-08-24 08:27:00,
2013-08-24 04:32:00,53.2,51.8,30.36,SE,135,0.0,0.0,95,0.00,CLR,SKC,0.00,WeatherDisplay:10.37,2013-08-24 08:32:00,
2013-08-24 04:37:00,53.2,51.8,30.36,SE,135,0.0,0.0,95,0.00,CLR,SKC,0.00,WeatherDisplay:10.37,2013-08-24 08:37:00,
2013-08-24 04:42:00,53.1,51.7,30.36,SE,135,0.0,0.0,95,0.00,CLR,SKC,0.00,WeatherDisplay:10.37,2013-08-24 08:42:00,
2013-08-24 04:47:00,53.1,51.7,30.36,SE,135,0.0,0.0,95,0.00,CLR,SKC,0.00,WeatherDisplay:10.37,2013-08-24 08:47:00,
2013-08-24 04:52:00,52.9,51.5,30.36,SE,135,0.0,0.0,95,0.00,CLR,SKC,0.00,WeatherDisplay:10.37,2013-08-24 08:52:00,
2013-08-24 04:57:00,52.9,51.5,30.37,SE,135,0.0,0.0,95,0.00,CLR,SKC,0.00,WeatherDisplay:10.37,2013-08-24 08:57:00,
2013-08-24 05:02:00,53.1,51.7,30.37,SE,135,0.0,0.0,95,0.00,CLR,SKC,0.00,WeatherDisplay:10.37,2013-08-24 09:02:00,
2013-08-24 05:07:00,53.1,51.7,30.37,SE,135,0.0,0.0,95,0.00,CLR,SKC,0.00,WeatherDisplay:10.37,2013-08-24 09:07:00,
2013-08-24 05:12:00,53.1,52.0,30.37,SE,135,0.0,0.0,96,0.00,CLR,SKC,0.00,WeatherDisplay:10.37,2013-08-24 09:12:00,
2013-08-24 05:17:00,53.1,52.0,30.37,SE,135,0.0,0.0,96,0.00,CLR,SKC,0.00,WeatherDisplay:10.37,2013-08-24 09:17:00,
2013-08-24 05:22:00,53.2,52.1,30.37,SE,135,0.0,0.0,96,0.00,CLR,SKC,0.00,WeatherDisplay:10.37,2013-08-24 09:22:00,
2013-08-24 05:27:00,53.2,52.1,30.38,SE,135,0.0,0.0,96,0.00,CLR,SKC,0.00,WeatherDisplay:10.37,2013-08-24 09:27:00,
2013-08-24 05:32:00,53.2,52.1,30.38,SE,135,0.0,0.0,96,0.00,CLR,SKC,0.00,WeatherDisplay:10.37,2013-08-24 09:32:00,
2013-08-24 05:37:00,53.4,52.3,30.38,SE,135,0.0,0.0,96,0.00,CLR,SKC,0.00,WeatherDisplay:10.37,2013-08-24 09:37:00,
2013-08-24 05:42:00,53.6,52.2,30.38,SE,135,0.0,0.0,95,0.00,CLR,SKC,0.00,WeatherDisplay:10.37,2013-08-24 09:42:00,
2013-08-24 05:47:00,53.4,52.3,30.39,SE,135,0.0,0.0,96,0.00,CLR,SKC,0.00,WeatherDisplay:10.37,2013-08-24 09:47:00,
2013-08-24 05:52:00,53.1,52.0,30.39,SE,135,0.0,0.0,96,0.00,CLR,SKC,0.00,WeatherDisplay:10.37,2013-08-24 09:52:00,
2013-08-24 05:57:00,53.1,52.0,30.38,SE,135,0.0,0.0,96,0.00,CLR,SKC,0.00,WeatherDisplay:10.37,2013-08-24 09:57:00,
2013-08-24 06:02:00,52.9,51.8,30.39,SE,135,0.0,0.0,96,0.00,FEW,SKC,0.00,WeatherDisplay:10.37,2013-08-24 10:02:00,
2013-08-24 06:07:00,52.9,51.8,30.39,SE,135,0.0,0.0,96,0.00,FEW,SKC,0.00,WeatherDisplay:10.37,2013-08-24 10:07:00,
2013-08-24 06:12:00,52.9,51.8,30.39,SE,135,0.0,0.0,96,0.00,FEW,SKC,0.00,WeatherDisplay:10.37,2013-08-24 10:12:00,
2013-08-24 06:17:00,52.9,51.8,30.39,SE,135,0.0,0.0,96,0.00,FEW,SKC,0.00,WeatherDisplay:10.37,2013-08-24 10:17:00,
2013-08-24 06:22:00,52.9,51.8,30.39,SE,135,0.0,0.0,96,0.00,FEW,SKC,0.00,WeatherDisplay:10.37,2013-08-24 10:22:00,
2013-08-24 06:27:00,52.9,51.8,30.40,SE,135,0.0,0.0,96,0.00,FEW,SKC,0.00,WeatherDisplay:10.37,2013-08-24 10:27:00,
2013-08-24 06:32:00,52.7,51.6,30.40,SE,135,0.0,0.0,96,0.00,FEW,SKC,0.00,WeatherDisplay:10.37,2013-08-24 10:32:00,
2013-08-24 06:37:00,52.7,51.6,30.40,SE,135,0.0,0.0,96,0.00,FEW,SKC,0.00,WeatherDisplay:10.37,2013-08-24 10:37:00,
2013-08-24 06:42:00,52.7,51.6,30.40,SE,135,0.0,0.0,96,0.00,FEW,SKC,0.00,WeatherDisplay:10.37,2013-08-24 10:42:00,
2013-08-24 06:47:00,52.9,51.8,30.40,SE,135,0.0,0.0,96,0.00,FEW,SKC,0.00,WeatherDisplay:10.37,2013-08-24 10:47:00,
2013-08-24 06:52:00,52.9,52.1,30.40,SE,135,0.0,0.0,97,0.00,FEW,SKC,0.00,WeatherDisplay:10.37,2013-08-24 10:52:00,
2013-08-24 06:57:00,52.7,51.6,30.40,SE,135,0.0,0.0,96,0.00,FEW,SKC,0.00,WeatherDisplay:10.37,2013-08-24 10:57:00,
2013-08-24 07:02:00,52.9,51.8,30.41,SE,135,0.0,0.0,96,0.00,FEW,SKC,0.00,WeatherDisplay:10.37,2013-08-24 11:02:00,
2013-08-24 07:07:00,52.9,51.8,30.41,SE,135,0.0,0.0,96,0.00,FEW,SKC,0.00,WeatherDisplay:10.37,2013-08-24 11:07:00,
2013-08-24 07:12:00,53.1,52.0,30.41,SE,135,0.0,0.0,96,0.00,FEW,SKC,0.00,WeatherDisplay:10.37,2013-08-24 11:12:00,
2013-08-24 07:17:00,53.2,52.1,30.41,SE,135,0.0,0.0,96,0.00,FEW,SKC,0.00,WeatherDisplay:10.37,2013-08-24 11:17:00,
2013-08-24 07:22:00,53.4,52.3,30.41,SE,135,0.0,0.0,96,0.00,FEW,SKC,0.00,WeatherDisplay:10.37,2013-08-24 11:22:00,
2013-08-24 07:27:00,53.8,52.7,30.41,SE,135,0.0,0.0,96,0.00,FEW,SKC,0.00,WeatherDisplay:10.37,2013-08-24 11:27:00,
2013-08-24 07:32:00,54.1,53.0,30.41,SE,135,0.0,0.0,96,0.00,FEW,SKC,0.00,WeatherDisplay:10.37,2013-08-24 11:32:00,
2013-08-24 07:37:00,54.5,53.4,30.42,SE,135,0.0,0.0,96,0.00,FEW,SKC,0.00,WeatherDisplay:10.37,2013-08-24 11:37:00,
2013-08-24 07:42:00,55.4,54.3,30.42,SE,135,0.0,0.0,96,0.00,FEW,SKC,0.00,WeatherDisplay:10.37,2013-08-24 11:42:00,
2013-08-24 07:47:00,56.1,55.0,30.42,SE,135,0.0,0.0,96,0.00,FEW,SKC,0.00,WeatherDisplay:10.37,2013-08-24 11:47:00,
2013-08-24 07:52:00,57.0,55.6,30.42,SE,135,0.0,0.0,95,0.00,FEW,SKC,0.00,WeatherDisplay:10.37,2013-08-24 11:52:00,
2013-08-24 07:57:00,57.7,55.1,30.42,South,180,0.0,0.0,91,0.00,FEW,SKC,0.00,WeatherDisplay:10.37,2013-08-24 11:57:00,
2013-08-24 08:02:00,58.5,55.2,30.42,SE,135,0.0,0.0,89,0.00,SCT,SKC,0.00,WeatherDisplay:10.37,2013-08-24 12:02:00,
2013-08-24 08:07:00,59.4,55.2,30.43,South,180,0.0,0.0,86,0.00,SCT,SKC,0.00,WeatherDisplay:10.37,2013-08-24 12:07:00,
2013-08-24 08:12:00,59.9,55.1,30.43,SE,135,0.0,0.0,84,0.00,SCT,SKC,0.00,WeatherDisplay:10.37,2013-08-24 12:12:00,
2013-08-24 08:17:00,60.8,55.3,30.43,SE,135,0.0,0.0,82,0.00,SCT,SKC,0.00,WeatherDisplay:10.37,2013-08-24 12:17:00,
2013-08-24 08:22:00,61.2,55.6,30.43,SE,135,0.0,0.0,82,0.00,SCT,SKC,0.00,WeatherDisplay:10.37,2013-08-24 12:22:00,
2013-08-24 08:27:00,61.9,56.0,30.43,South,180,0.0,0.0,81,0.00,SCT,SKC,0.00,WeatherDisplay:10.37,2013-08-24 12:27:00,
2013-08-24 08:32:00,62.4,55.8,30.44,SE,135,0.0,0.0,79,0.00,SCT,SKC,0.00,WeatherDisplay:10.37,2013-08-24 12:32:00,
2013-08-24 08:37:00,63.0,56.0,30.44,SE,135,4.6,4.6,78,0.00,SCT,SKC,0.00,WeatherDisplay:10.37,2013-08-24 12:37:00,
2013-08-24 08:42:00,63.5,56.2,30.44,SE,135,1.2,1.2,77,0.00,SCT,SKC,0.00,WeatherDisplay:10.37,2013-08-24 12:42:00,
2013-08-24 08:47:00,64.0,56.7,30.44,SE,135,3.5,3.5,77,0.00,SCT,SKC,0.00,WeatherDisplay:10.37,2013-08-24 12:47:00,
2013-08-24 08:52:00,64.6,56.8,30.44,SE,135,2.3,2.3,76,0.00,SCT,SKC,0.00,WeatherDisplay:10.37,2013-08-24 12:52:00,
2013-08-24 08:57:00,65.1,57.4,30.44,East,90,2.3,2.3,76,0.00,SCT,SKC,0.00,WeatherDisplay:10.37,2013-08-24 12:57:00,
2013-08-24 09:02:00,65.7,57.9,30.44,SE,135,2.3,2.3,76,0.00,FEW,SKC,0.00,WeatherDisplay:10.37,2013-08-24 13:02:00,
2013-08-24 09:07:00,66.2,57.7,30.44,South,180,2.3,2.3,74,0.00,FEW,SKC,0.00,WeatherDisplay:10.37,2013-08-24 13:07:00,
2013-08-24 09:12:00,66.7,58.2,30.44,SE,135,3.5,3.5,74,0.00,FEW,SKC,0.00,WeatherDisplay:10.37,2013-08-24 13:12:00,
2013-08-24 09:17:00,67.1,57.8,30.44,SE,135,3.5,0.0,72,0.00,FEW,SKC,0.00,WeatherDisplay:10.37,2013-08-24 13:17:00,
2013-08-24 09:22:00,67.6,57.9,30.44,NE,45,2.3,2.3,71,0.00,FEW,SKC,0.00,WeatherDisplay:10.37,2013-08-24 13:22:00,
2013-08-24 09:28:00,68.2,57.2,30.44,SE,135,3.5,3.5,68,0.00,FEW,SKC,0.00,WeatherDisplay:10.37,2013-08-24 13:28:00,
2013-08-24 09:33:00,68.4,57.0,30.44,SE,135,4.6,4.6,67,0.00,FEW,SKC,0.00,WeatherDisplay:10.37,2013-08-24 13:33:00,
2013-08-24 09:38:00,68.7,56.9,30.44,SE,135,5.8,5.8,66,0.00,FEW,SKC,0.00,WeatherDisplay:10.37,2013-08-24 13:38:00,
2013-08-24 09:43:00,69.1,56.8,30.44,South,180,4.6,4.6,65,0.00,FEW,SKC,0.00,WeatherDisplay:10.37,2013-08-24 13:43:00,
2013-08-24 09:48:00,69.3,56.6,30.44,East,90,3.5,3.5,64,0.00,FEW,SKC,0.00,WeatherDisplay:10.37,2013-08-24 13:48:00,
2013-08-24 09:53:00,69.4,55.9,30.45,South,180,5.8,5.8,62,0.00,FEW,SKC,0.00,WeatherDisplay:10.37,2013-08-24 13:53:00,
2013-08-24 09:58:00,69.8,56.2,30.44,East,90,2.3,2.3,62,0.00,FEW,SKC,0.00,WeatherDisplay:10.37,2013-08-24 13:58:00,
2013-08-24 10:03:00,70.2,54.7,30.45,South,180,3.5,4.5,58,0.00,SCT,SKC,0.00,WeatherDisplay:10.37,2013-08-24 14:03:00,
2013-08-24 10:08:00,70.3,54.4,30.45,East,90,3.5,3.5,57,0.00,SCT,SKC,0.00,WeatherDisplay:10.37,2013-08-24 14:08:00,
2013-08-24 10:13:00,70.5,53.6,30.45,NE,45,2.3,2.3,55,0.00,SCT,SKC,0.00,WeatherDisplay:10.37,2013-08-24 14:13:00,
2013-08-24 10:18:00,70.7,52.7,30.45,SE,135,4.6,4.6,53,0.00,SCT,SKC,0.00,WeatherDisplay:10.37,2013-08-24 14:18:00,
2013-08-24 10:23:00,70.9,52.9,30.45,East,90,3.5,3.5,53,0.00,SCT,SKC,0.00,WeatherDisplay:10.37,2013-08-24 14:23:00,
2013-08-24 10:28:00,71.2,53.7,30.45,East,90,5.8,5.8,54,0.00,SCT,SKC,0.00,WeatherDisplay:10.37,2013-08-24 14:28:00,
2013-08-24 10:33:00,71.8,53.7,30.45,SE,135,2.3,2.3,53,0.00,SCT,SKC,0.00,WeatherDisplay:10.37,2013-08-24 14:33:00,
2013-08-24 10:38:00,72.0,52.3,30.45,SE,135,8.1,8.1,50,0.00,SCT,SKC,0.00,WeatherDisplay:10.37,2013-08-24 14:38:00,
2013-08-24 10:43:00,72.0,52.3,30.45,South,180,5.8,5.8,50,0.00,SCT,SKC,0.00,WeatherDisplay:10.37,2013-08-24 14:43:00,
2013-08-24 10:48:00,72.3,51.0,30.45,East,90,2.3,2.3,47,0.00,SCT,SKC,0.00,WeatherDisplay:10.37,2013-08-24 14:48:00,
2013-08-24 10:53:00,72.5,49.9,30.45,SE,135,4.6,4.6,45,0.00,SCT,SKC,0.00,WeatherDisplay:10.37,2013-08-24 14:53:00,
2013-08-24 10:58:00,72.9,50.9,30.45,NE,45,1.2,0.0,46,0.00,SCT,SKC,0.00,WeatherDisplay:10.37,2013-08-24 14:58:00,
2013-08-24 11:03:00,73.6,52.1,30.45,South,180,3.8,3.8,47,0.00,SCT,SKC,0.00,WeatherDisplay:10.37,2013-08-24 15:03:00,
2013-08-24 11:08:00,73.2,50.0,30.44,South,180,5.8,5.8,44,0.00,SCT,SKC,0.00,WeatherDisplay:10.37,2013-08-24 15:08:00,
2013-08-24 11:13:00,73.6,49.7,30.45,SE,135,5.8,5.8,43,0.00,SCT,SKC,0.00,WeatherDisplay:10.37,2013-08-24 15:13:00,
2013-08-24 11:18:00,74.1,51.4,30.45,NE,45,3.5,3.5,45,0.00,SCT,SKC,0.00,WeatherDisplay:10.37,2013-08-24 15:18:00,
2013-08-24 11:23:00,74.3,52.2,30.45,East,90,1.2,0.0,46,0.00,SCT,SKC,0.00,WeatherDisplay:10.37,2013-08-24 15:23:00,
2013-08-24 11:28:00,75.6,52.1,30.45,East,90,2.3,2.3,44,0.00,SCT,SKC,0.00,WeatherDisplay:10.37,2013-08-24 15:28:00,
2013-08-24 11:33:00,76.3,52.8,30.44,SE,135,4.6,4.6,44,0.00,SCT,SKC,0.00,WeatherDisplay:10.37,2013-08-24 15:33:00,
2013-08-24 11:38:00,76.1,52.0,30.44,NE,45,3.5,3.5,43,0.00,SCT,SKC,0.00,WeatherDisplay:10.37,2013-08-24 15:38:00,
2013-08-24 11:43:00,76.5,52.3,30.44,SW,225,2.3,2.3,43,0.00,SCT,SKC,0.00,WeatherDisplay:10.37,2013-08-24 15:43:00,
2013-08-24 11:48:00,76.3,53.4,30.44,SW,225,2.3,2.3,45,0.00,SCT,SKC,0.00,WeatherDisplay:10.37,2013-08-24 15:48:00,
2013-08-24 11:53:00,76.8,53.3,30.44,NE,45,3.5,3.5,44,0.00,SCT,SKC,0.00,WeatherDisplay:10.37,2013-08-24 15:53:00,
2013-08-24 11:58:00,76.8,53.3,30.44,NE,45,3.8,3.8,44,0.00,SCT,SKC,0.00,WeatherDisplay:10.37,2013-08-24 15:58:00,
2013-08-24 12:03:00,76.3,52.8,30.44,North,0,3.5,3.5,44,0.00,SCT,SKC,0.00,WeatherDisplay:10.37,2013-08-24 16:03:00,
2013-08-24 12:08:00,76.6,53.1,30.44,NE,45,3.5,3.5,44,0.00,SCT,SKC,0.00,WeatherDisplay:10.37,2013-08-24 16:08:00,
2013-08-24 12:13:00,77.2,53.6,30.44,NE,45,3.5,3.5,44,0.00,SCT,SKC,0.00,WeatherDisplay:10.37,2013-08-24 16:13:00,
2013-08-24 12:18:00,78.1,53.1,30.44,SW,225,2.3,0.0,42,0.00,SCT,SKC,0.00,WeatherDisplay:10.37,2013-08-24 16:18:00,
2013-08-24 12:23:00,79.2,53.4,30.44,SE,135,4.6,4.6,41,0.00,SCT,SKC,0.00,WeatherDisplay:10.37,2013-08-24 16:23:00,
2013-08-24 12:28:00,79.9,52.7,30.44,South,180,3.5,3.5,39,0.00,SCT,SKC,0.00,WeatherDisplay:10.37,2013-08-24 16:28:00,
2013-08-24 12:33:00,80.6,52.6,30.44,North,0,2.3,2.3,38,0.00,SCT,SKC,0.00,WeatherDisplay:10.37,2013-08-24 16:33:00,
2013-08-24 12:38:00,81.0,52.2,30.43,NE,45,3.5,3.5,37,0.00,SCT,SKC,0.00,WeatherDisplay:10.37,2013-08-24 16:38:00,
2013-08-24 12:43:00,80.6,50.4,30.43,WNW,292,3.5,3.5,35,0.00,SCT,SKC,0.00,WeatherDisplay:10.37,2013-08-24 16:43:00,
2013-08-24 12:48:00,81.0,51.5,30.43,East,90,3.5,3.5,36,0.00,SCT,SKC,0.00,WeatherDisplay:10.37,2013-08-24 16:48:00,
2013-08-24 12:53:00,80.8,51.3,30.43,North,0,1.2,0.0,36,0.00,SCT,SKC,0.00,WeatherDisplay:10.37,2013-08-24 16:53:00,
2013-08-24 12:58:00,80.8,51.3,30.43,North,0,3.5,3.5,36,0.00,SCT,SKC,0.00,WeatherDisplay:10.37,2013-08-24 16:58:00,
2013-08-24 13:03:00,81.7,53.6,30.42,North,0,3.5,3.5,38,0.00,SCT,SKC,0.00,WeatherDisplay:10.37,2013-08-24 17:03:00,
2013-08-24 13:08:00,82.6,55.1,30.42,North,0,1.2,2.2,39,0.00,SCT,SKC,0.00,WeatherDisplay:10.37,2013-08-24 17:08:00,
2013-08-24 13:13:00,83.5,54.5,30.42,South,180,4.5,4.5,37,0.00,SCT,SKC,0.00,WeatherDisplay:10.37,2013-08-24 17:13:00,
2013-08-24 13:18:00,82.4,52.8,30.42,East,90,3.5,3.5,36,0.00,SCT,SKC,0.00,WeatherDisplay:10.37,2013-08-24 17:18:00,
2013-08-24 13:23:00,83.1,54.1,30.42,SE,135,3.5,3.5,37,0.00,SCT,SKC,0.00,WeatherDisplay:10.37,2013-08-24 17:23:00,
2013-08-24 13:28:00,82.9,54.0,30.42,North,0,2.3,2.3,37,0.00,SCT,SKC,0.00,WeatherDisplay:10.37,2013-08-24 17:28:00,
2013-08-24 13:33:00,81.7,51.4,30.41,North,0,3.5,3.5,35,0.00,SCT,SKC,0.00,WeatherDisplay:10.37,2013-08-24 17:33:00,
2013-08-24 13:38:00,80.8,53.5,30.42,NE,45,3.5,3.5,39,0.00,SCT,SKC,0.00,WeatherDisplay:10.37,2013-08-24 17:38:00,
2013-08-24 13:43:00,81.9,53.0,30.41,North,0,2.3,2.3,37,0.00,SCT,SKC,0.00,WeatherDisplay:10.37,2013-08-24 17:43:00,
2013-08-24 13:48:00,83.1,54.1,30.41,NE,45,3.5,3.5,37,0.00,SCT,SKC,0.00,WeatherDisplay:10.37,2013-08-24 17:48:00,
2013-08-24 13:53:00,82.2,51.1,30.41,East,90,2.3,2.3,34,0.00,SCT,SKC,0.00,WeatherDisplay:10.37,2013-08-24 17:53:00,
2013-08-24 13:58:00,82.0,51.7,30.40,NE,45,4.6,4.6,35,0.00,SCT,SKC,0.00,WeatherDisplay:10.37,2013-08-24 17:58:00,
2013-08-24 14:03:00,81.5,52.7,30.40,East,90,3.5,3.5,37,0.00,SCT,SKC,0.00,WeatherDisplay:10.37,2013-08-24 18:03:00,
2013-08-24 14:08:00,82.2,52.6,30.40,North,0,3.5,3.5,36,0.00,SCT,SKC,0.00,WeatherDisplay:10.37,2013-08-24 18:08:00,
2013-08-24 14:13:00,83.1,54.9,30.40,SE,135,3.5,0.0,38,0.00,SCT,SKC,0.00,WeatherDisplay:10.37,2013-08-24 18:13:00,
2013-08-24 14:18:00,81.9,52.3,30.40,NW,315,3.5,0.0,36,0.00,SCT,SKC,0.00,WeatherDisplay:10.37,2013-08-24 18:18:00,
2013-08-24 14:23:00,82.8,54.6,30.40,North,0,3.5,3.5,38,0.00,SCT,SKC,0.00,WeatherDisplay:10.37,2013-08-24 18:23:00,
2013-08-24 14:28:00,81.7,53.6,30.40,East,90,3.5,3.5,38,0.00,SCT,SKC,0.00,WeatherDisplay:10.37,2013-08-24 18:28:00,
2013-08-24 14:33:00,82.2,52.6,30.40,NE,45,3.5,3.5,36,0.00,SCT,SKC,0.00,WeatherDisplay:10.37,2013-08-24 18:33:00,
2013-08-24 14:38:00,82.4,53.5,30.40,SE,135,2.3,2.3,37,0.00,SCT,SKC,0.00,WeatherDisplay:10.37,2013-08-24 18:38:00,
2013-08-24 14:43:00,82.8,54.6,30.40,East,90,5.8,5.8,38,0.00,SCT,SKC,0.00,WeatherDisplay:10.37,2013-08-24 18:43:00,
2013-08-24 14:48:00,82.4,53.5,30.39,North,0,2.3,2.3,37,0.00,SCT,SKC,0.00,WeatherDisplay:10.37,2013-08-24 18:48:00,
2013-08-24 14:53:00,82.6,54.4,30.40,NE,45,3.5,3.5,38,0.00,SCT,SKC,0.00,WeatherDisplay:10.37,2013-08-24 18:53:00,
2013-08-24 14:58:00,82.4,53.5,30.39,NW,315,4.6,4.6,37,0.00,SCT,SKC,0.00,WeatherDisplay:10.37,2013-08-24 18:58:00,
2013-08-24 15:03:00,81.9,51.5,30.39,East,90,10.4,10.4,35,0.00,SCT,SKC,0.00,WeatherDisplay:10.37,2013-08-24 19:03:00,
2013-08-24 15:08:00,81.7,52.1,30.39,East,90,3.5,3.5,36,0.00,SCT,SKC,0.00,WeatherDisplay:10.37,2013-08-24 19:08:00,
2013-08-24 15:14:00,82.9,54.0,30.39,NE,45,1.2,2.2,37,0.00,SCT,SKC,0.00,WeatherDisplay:10.37,2013-08-24 19:14:00,
2013-08-24 15:19:00,82.0,50.9,30.39,NE,45,3.5,3.5,34,0.00,SCT,SKC,0.00,WeatherDisplay:10.37,2013-08-24 19:19:00,
2013-08-24 15:24:00,80.4,52.5,30.38,NE,45,3.5,3.5,38,0.00,SCT,SKC,0.00,WeatherDisplay:10.37,2013-08-24 19:24:00,
2013-08-24 15:29:00,80.2,52.3,30.38,East,90,3.5,3.5,38,0.00,SCT,SKC,0.00,WeatherDisplay:10.37,2013-08-24 19:29:00,
2013-08-24 15:34:00,79.3,51.5,30.38,SW,225,3.5,3.5,38,0.00,SCT,SKC,0.00,WeatherDisplay:10.37,2013-08-24 19:34:00,
2013-08-24 15:39:00,78.8,52.4,30.38,NE,45,3.5,3.5,40,0.00,SCT,SKC,0.00,WeatherDisplay:10.37,2013-08-24 19:39:00,
2013-08-24 15:44:00,79.2,54.1,30.38,East,90,3.5,3.5,42,0.00,SCT,SKC,0.00,WeatherDisplay:10.37,2013-08-24 19:44:00,
2013-08-24 15:49:00,78.8,53.8,30.38,NE,45,3.5,3.5,42,0.00,SCT,SKC,0.00,WeatherDisplay:10.37,2013-08-24 19:49:00,
2013-08-24 15:54:00,78.8,53.1,30.38,SW,225,2.3,3.1,41,0.00,SCT,SKC,0.00,WeatherDisplay:10.37,2013-08-24 19:54:00,
2013-08-24 15:59:00,78.4,53.4,30.38,NNW,338,2.3,2.3,42,0.00,SCT,SKC,0.00,WeatherDisplay:10.37,2013-08-24 19:59:00,
2013-08-24 16:04:00,78.3,53.9,30.38,NE,45,3.5,3.5,43,0.00,SCT,SKC,0.00,WeatherDisplay:10.37,2013-08-24 20:04:00,
2013-08-24 16:09:00,78.3,54.6,30.38,East,90,3.5,3.5,44,0.00,SCT,SKC,0.00,WeatherDisplay:10.37,2013-08-24 20:09:00,
2013-08-24 16:14:00,78.4,54.1,30.38,NE,45,3.5,3.5,43,0.00,SCT,SKC,0.00,WeatherDisplay:10.37,2013-08-24 20:14:00,
2013-08-24 16:19:00,77.5,53.3,30.38,NE,45,3.5,3.5,43,0.00,SCT,SKC,0.00,WeatherDisplay:10.37,2013-08-24 20:19:00,
2013-08-24 16:24:00,77.5,53.3,30.38,NE,45,3.5,3.5,43,0.00,SCT,SKC,0.00,WeatherDisplay:10.37,2013-08-24 20:24:00,
2013-08-24 16:29:00,77.7,53.4,30.38,North,0,3.5,3.5,43,0.00,SCT,SKC,0.00,WeatherDisplay:10.37,2013-08-24 20:29:00,
2013-08-24 16:34:00,77.5,53.3,30.38,NW,315,3.5,3.5,43,0.00,SCT,SKC,0.00,WeatherDisplay:10.37,2013-08-24 20:34:00,
2013-08-24 16:39:00,77.7,54.1,30.38,North,0,3.5,3.5,44,0.00,SCT,SKC,0.00,WeatherDisplay:10.37,2013-08-24 20:39:00,
2013-08-24 16:44:00,77.7,54.1,30.38,East,90,3.5,3.5,44,0.00,SCT,SKC,0.00,WeatherDisplay:10.37,2013-08-24 20:44:00,
2013-08-24 16:49:00,77.4,53.7,30.38,North,0,3.5,3.5,44,0.00,SCT,SKC,0.00,WeatherDisplay:10.37,2013-08-24 20:49:00,
2013-08-24 16:54:00,77.0,53.4,30.38,North,0,3.5,3.5,44,0.00,SCT,SKC,0.00,WeatherDisplay:10.37,2013-08-24 20:54:00,
2013-08-24 16:59:00,77.2,53.6,30.38,NE,45,2.3,2.3,44,0.00,SCT,SKC,0.00,WeatherDisplay:10.37,2013-08-24 20:59:00,
2013-08-24 17:04:00,77.0,53.4,30.38,NW,315,4.5,4.5,44,0.00,SCT,SKC,0.00,WeatherDisplay:10.37,2013-08-24 21:04:00,
2013-08-24 17:09:00,76.8,53.9,30.38,East,90,3.5,3.5,45,0.00,SCT,SKC,0.00,WeatherDisplay:10.37,2013-08-24 21:09:00,
2013-08-24 17:14:00,77.0,53.4,30.38,East,90,3.5,3.5,44,0.00,SCT,SKC,0.00,WeatherDisplay:10.37,2013-08-24 21:14:00,
2013-08-24 17:19:00,77.2,53.6,30.38,NE,45,2.3,2.3,44,0.00,SCT,SKC,0.00,WeatherDisplay:10.37,2013-08-24 21:19:00,
2013-08-24 17:24:00,78.6,54.2,30.38,East,90,3.5,0.0,43,0.00,SCT,SKC,0.00,WeatherDisplay:10.37,2013-08-24 21:24:00,
2013-08-24 17:29:00,80.4,54.6,30.38,NE,45,1.2,0.0,41,0.00,SCT,SKC,0.00,WeatherDisplay:10.37,2013-08-24 21:29:00,
2013-08-24 17:34:00,78.3,53.3,30.38,North,0,3.5,3.5,42,0.00,SCT,SKC,0.00,WeatherDisplay:10.37,2013-08-24 21:34:00,
2013-08-24 17:39:00,78.1,53.8,30.38,NNW,338,3.5,3.5,43,0.00,SCT,SKC,0.00,WeatherDisplay:10.37,2013-08-24 21:39:00,
2013-08-24 17:44:00,78.1,53.8,30.38,East,90,2.3,2.3,43,0.00,SCT,SKC,0.00,WeatherDisplay:10.37,2013-08-24 21:44:00,
2013-08-24 17:49:00,77.5,53.3,30.38,NE,45,1.2,1.2,43,0.00,SCT,SKC,0.00,WeatherDisplay:10.37,2013-08-24 21:49:00,
2013-08-24 17:54:00,77.0,52.8,30.38,SW,225,1.2,0.0,43,0.00,SCT,SKC,0.00,WeatherDisplay:10.37,2013-08-24 21:54:00,
2013-08-24 17:59:00,76.6,53.1,30.38,East,90,2.3,2.3,44,0.00,SCT,SKC,0.00,WeatherDisplay:10.37,2013-08-24 21:59:00,
2013-08-24 18:04:00,76.3,52.8,30.38,East,90,2.3,2.3,44,0.00,SCT,SKC,0.00,WeatherDisplay:10.37,2013-08-24 22:04:00,
2013-08-24 18:09:00,75.9,52.4,30.38,North,0,2.3,2.3,44,0.00,SCT,SKC,0.00,WeatherDisplay:10.37,2013-08-24 22:09:00,
2013-08-24 18:14:00,75.7,52.3,30.38,NE,45,2.3,2.3,44,0.00,SCT,SKC,0.00,WeatherDisplay:10.37,2013-08-24 22:14:00,
2013-08-24 18:19:00,75.4,51.9,30.38,North,0,2.3,0.0,44,0.00,SCT,SKC,0.00,WeatherDisplay:10.37,2013-08-24 22:19:00,
2013-08-24 18:24:00,75.4,51.9,30.38,East,90,2.3,2.3,44,0.00,SCT,SKC,0.00,WeatherDisplay:10.37,2013-08-24 22:24:00,
2013-08-24 18:29:00,75.2,51.8,30.38,East,90,2.3,0.0,44,0.00,SCT,SKC,0.00,WeatherDisplay:10.37,2013-08-24 22:29:00,
2013-08-24 18:34:00,75.0,52.8,30.38,North,0,1.2,0.0,46,0.00,SCT,SKC,0.00,WeatherDisplay:10.37,2013-08-24 22:34:00,
2013-08-24 18:39:00,74.8,52.7,30.38,North,0,2.3,2.3,46,0.00,SCT,SKC,0.00,WeatherDisplay:10.37,2013-08-24 22:39:00,
2013-08-24 18:44:00,74.8,54.9,30.38,NW,315,3.5,3.5,50,0.00,SCT,SKC,0.00,WeatherDisplay:10.37,2013-08-24 22:44:00,
2013-08-24 18:49:00,74.1,56.9,30.38,North,0,4.6,4.6,55,0.00,SCT,SKC,0.00,WeatherDisplay:10.37,2013-08-24 22:49:00,
2013-08-24 18:54:00,73.6,56.9,30.38,NE,45,5.8,5.8,56,0.00,SCT,SKC,0.00,WeatherDisplay:10.37,2013-08-24 22:54:00,
2013-08-24 18:59:00,73.4,56.7,30.38,NE,45,4.6,4.6,56,0.00,SCT,SKC,0.00,WeatherDisplay:10.37,2013-08-24 22:59:00,
2013-08-24 19:04:00,73.0,56.9,30.38,North,0,5.8,5.8,57,0.00,SCT,SKC,0.00,WeatherDisplay:10.37,2013-08-24 23:04:00,
2013-08-24 19:09:00,72.7,57.0,30.39,North,0,3.5,3.5,58,0.00,SCT,SKC,0.00,WeatherDisplay:10.37,2013-08-24 23:09:00,
2013-08-24 19:14:00,72.3,56.2,30.38,NE,45,2.3,2.3,57,0.00,SCT,SKC,0.00,WeatherDisplay:10.37,2013-08-24 23:14:00,
2013-08-24 19:19:00,72.1,56.5,30.38,North,0,3.5,3.5,58,0.00,SCT,SKC,0.00,WeatherDisplay:10.37,2013-08-24 23:19:00,
2013-08-24 19:24:00,71.8,56.2,30.38,North,0,2.3,2.3,58,0.00,SCT,SKC,0.00,WeatherDisplay:10.37,2013-08-24 23:24:00,
2013-08-24 19:29:00,71.6,56.0,30.38,NE,45,2.3,2.3,58,0.00,SCT,SKC,0.00,WeatherDisplay:10.37,2013-08-24 23:29:00,
2013-08-24 19:34:00,71.4,56.3,30.38,SE,135,2.3,2.3,59,0.00,SCT,SKC,0.00,WeatherDisplay:10.37,2013-08-24 23:34:00,
2013-08-24 19:39:00,71.2,56.2,30.38,North,0,3.5,3.5,59,0.00,SCT,SKC,0.00,WeatherDisplay:10.37,2013-08-24 23:39:00,
2013-08-24 19:44:00,70.9,55.8,30.39,NE,45,3.5,3.5,59,0.00,SCT,SKC,0.00,WeatherDisplay:10.37,2013-08-24 23:44:00,
2013-08-24 19:49:00,70.7,56.1,30.39,NW,315,1.2,0.0,60,0.00,SCT,SKC,0.00,WeatherDisplay:10.37,2013-08-24 23:49:00,
2013-08-24 19:54:00,70.3,55.8,30.38,NE,45,2.3,2.3,60,0.00,SCT,SKC,0.00,WeatherDisplay:10.37,2013-08-24 23:54:00,
2013-08-24 19:59:00,70.2,55.6,30.38,NE,45,2.3,2.3,60,0.00,SCT,SKC,0.00,WeatherDisplay:10.37,2013-08-24 23:59:00,
2013-08-24 20:04:00,70.0,55.9,30.39,NW,315,1.2,1.2,61,0.00,SCT,SKC,0.00,WeatherDisplay:10.37,2013-08-25 00:04:00,
2013-08-24 20:09:00,69.6,56.0,30.38,NE,45,2.3,2.3,62,0.00,SCT,SKC,0.00,WeatherDisplay:10.37,2013-08-25 00:09:00,
2013-08-24 20:14:00,69.4,55.9,30.39,East,90,1.2,1.2,62,0.00,SCT,SKC,0.00,WeatherDisplay:10.37,2013-08-25 00:14:00,
2013-08-24 20:19:00,69.3,55.7,30.39,NE,45,1.2,0.0,62,0.00,SCT,SKC,0.00,WeatherDisplay:10.37,2013-08-25 00:19:00,
2013-08-24 20:24:00,69.1,56.0,30.40,NE,45,1.2,0.0,63,0.00,SCT,SKC,0.00,WeatherDisplay:10.37,2013-08-25 00:24:00,
2013-08-24 20:29:00,68.7,55.6,30.40,North,0,1.2,1.2,63,0.00,SCT,SKC,0.00,WeatherDisplay:10.37,2013-08-25 00:29:00,
2013-08-24 20:34:00,68.5,55.4,30.40,North,0,1.2,0.0,63,0.00,SCT,SKC,0.00,WeatherDisplay:10.37,2013-08-25 00:34:00,
2013-08-24 20:39:00,68.0,54.9,30.40,North,0,1.2,0.0,63,0.00,SCT,SKC,0.00,WeatherDisplay:10.37,2013-08-25 00:39:00,
2013-08-24 20:45:00,67.8,55.6,30.40,North,0,2.3,2.3,65,0.00,SCT,SKC,0.00,WeatherDisplay:10.37,2013-08-25 00:45:00,
2013-08-24 20:50:00,67.6,55.5,30.40,North,0,1.2,1.2,65,0.00,SCT,SKC,0.00,WeatherDisplay:10.37,2013-08-25 00:50:00,
2013-08-24 20:55:00,67.3,55.1,30.41,North,0,1.2,0.0,65,0.00,SCT,SKC,0.00,WeatherDisplay:10.37,2013-08-25 00:55:00,
2013-08-24 21:00:00,66.7,54.6,30.41,North,0,0.0,0.0,65,0.00,SCT,SKC,0.00,WeatherDisplay:10.37,2013-08-25 01:00:00,
2013-08-24 21:05:00,66.4,54.3,30.41,North,0,0.0,0.0,65,0.00,FEW,SKC,0.00,WeatherDisplay:10.37,2013-08-25 01:05:00,
2013-08-24 21:10:00,66.2,54.1,30.41,North,0,0.0,0.0,65,0.00,FEW,SKC,0.00,WeatherDisplay:10.37,2013-08-25 01:10:00,
2013-08-24 21:15:00,66.0,54.3,30.41,North,0,0.0,0.0,66,0.00,FEW,SKC,0.00,WeatherDisplay:10.37,2013-08-25 01:15:00,
2013-08-24 21:20:00,66.0,54.3,30.41,North,0,0.0,0.0,66,0.00,FEW,SKC,0.00,WeatherDisplay:10.37,2013-08-25 01:20:00,
2013-08-24 21:25:00,66.0,54.7,30.41,North,0,0.0,0.0,67,0.00,FEW,SKC,0.00,WeatherDisplay:10.37,2013-08-25 01:25:00,
2013-08-24 21:30:00,65.7,54.4,30.41,North,0,0.0,0.0,67,0.00,FEW,SKC,0.00,WeatherDisplay:10.37,2013-08-25 01:30:00,
2013-08-24 21:35:00,65.5,54.2,30.41,North,0,0.0,0.0,67,0.00,FEW,SKC,0.00,WeatherDisplay:10.37,2013-08-25 01:35:00,
2013-08-24 21:40:00,65.1,53.9,30.41,North,0,0.0,0.0,67,0.00,FEW,SKC,0.00,WeatherDisplay:10.37,2013-08-25 01:40:00,
2013-08-24 21:45:00,64.9,54.1,30.41,North,0,0.0,0.0,68,0.00,FEW,SKC,0.00,WeatherDisplay:10.37,2013-08-25 01:45:00,
2013-08-24 21:50:00,64.6,53.8,30.41,North,0,0.0,0.0,68,0.00,FEW,SKC,0.00,WeatherDisplay:10.37,2013-08-25 01:50:00,
2013-08-24 21:55:00,64.6,53.8,30.41,North,0,1.2,0.0,68,0.00,FEW,SKC,0.00,WeatherDisplay:10.37,2013-08-25 01:55:00,
2013-08-24 22:00:00,64.6,53.8,30.41,North,0,1.2,0.0,68,0.00,FEW,SKC,0.00,WeatherDisplay:10.37,2013-08-25 02:00:00,
2013-08-24 22:05:00,64.4,53.6,30.41,North,0,1.2,0.0,68,0.00,FEW,SKC,0.00,WeatherDisplay:10.37,2013-08-25 02:05:00,
2013-08-24 22:10:00,64.0,53.7,30.41,North,0,1.2,0.0,69,0.00,FEW,SKC,0.00,WeatherDisplay:10.37,2013-08-25 02:10:00,
2013-08-24 22:15:00,64.0,53.7,30.41,North,0,0.7,0.0,69,0.00,FEW,SKC,0.00,WeatherDisplay:10.37,2013-08-25 02:15:00,
2013-08-24 22:20:00,63.9,53.5,30.41,North,0,0.0,0.0,69,0.00,FEW,SKC,0.00,WeatherDisplay:10.37,2013-08-25 02:20:00,
2013-08-24 22:25:00,63.5,52.7,30.40,North,0,0.0,0.0,68,0.00,FEW,SKC,0.00,WeatherDisplay:10.37,2013-08-25 02:25:00,
2013-08-24 22:30:00,63.1,52.4,30.41,North,0,0.0,0.0,68,0.00,FEW,SKC,0.00,WeatherDisplay:10.37,2013-08-25 02:30:00,
2013-08-24 22:35:00,63.0,52.2,30.41,North,0,0.0,0.0,68,0.00,FEW,SKC,0.00,WeatherDisplay:10.37,2013-08-25 02:35:00,
2013-08-24 22:40:00,63.0,52.6,30.41,SE,135,1.2,0.0,69,0.00,FEW,SKC,0.00,WeatherDisplay:10.37,2013-08-25 02:40:00,
2013-08-24 22:45:00,63.1,52.8,30.41,SE,135,1.2,0.0,69,0.00,FEW,SKC,0.00,WeatherDisplay:10.37,2013-08-25 02:45:00,
2013-08-24 22:50:00,63.1,52.4,30.41,NE,45,1.2,0.0,68,0.00,FEW,SKC,0.00,WeatherDisplay:10.37,2013-08-25 02:50:00,
2013-08-24 22:55:00,63.1,52.8,30.40,East,90,1.2,0.0,69,0.00,FEW,SKC,0.00,WeatherDisplay:10.37,2013-08-25 02:55:00,
2013-08-24 23:00:00,63.1,52.8,30.40,East,90,0.0,0.0,69,0.00,FEW,SKC,0.00,WeatherDisplay:10.37,2013-08-25 03:00:00,
2013-08-24 23:05:00,62.8,52.1,30.40,North,0,0.0,0.0,68,0.00,FEW,SKC,0.00,WeatherDisplay:10.37,2013-08-25 03:05:00,
2013-08-24 23:10:00,62.6,52.3,30.40,North,0,0.0,0.0,69,0.00,FEW,SKC,0.00,WeatherDisplay:10.37,2013-08-25 03:10:00,
2013-08-24 23:15:00,62.2,52.3,30.40,North,0,0.0,0.0,70,0.00,FEW,SKC,0.00,WeatherDisplay:10.37,2013-08-25 03:15:00,
2013-08-24 23:20:00,61.7,51.8,30.40,North,0,0.0,0.0,70,0.00,FEW,SKC,0.00,WeatherDisplay:10.37,2013-08-25 03:20:00,
2013-08-24 23:25:00,61.5,52.0,30.40,West,270,0.0,0.0,71,0.00,FEW,SKC,0.00,WeatherDisplay:10.37,2013-08-25 03:25:00,
2013-08-24 23:30:00,61.3,51.9,30.40,West,270,0.0,0.0,71,0.00,FEW,SKC,0.00,WeatherDisplay:10.37,2013-08-25 03:30:00,
2013-08-24 23:35:00,61.3,51.9,30.40,West,270,0.0,0.0,71,0.00,FEW,SKC,0.00,WeatherDisplay:10.37,2013-08-25 03:35:00,
2013-08-24 23:40:00,61.2,51.7,30.40,East,90,0.0,0.0,71,0.00,FEW,SKC,0.00,WeatherDisplay:10.37,2013-08-25 03:40:00,
2013-08-24 23:45:00,61.3,51.9,30.40,SE,135,1.2,0.0,71,0.00,FEW,SKC,0.00,WeatherDisplay:10.37,2013-08-25 03:45:00,
2013-08-24 23:50:00,61.2,51.7,30.40,SE,135,0.0,0.0,71,0.00,FEW,SKC,0.00,WeatherDisplay:10.37,2013-08-25 03:50:00,
2013-08-24 23:55:00,61.2,51.7,30.40,SE,135,0.0,0.0,71,0.00,FEW,SKC,0.00,WeatherDisplay:10.37,2013-08-25 03:55:00,